RH
28 29 29 27 24 20 19 20 21 22 24 28 27 27 26 25 24 24 23 24 23 22 24 24 23 22 22 21 19 18 20 31 51 50 47 58 57 57 53 43 30 21 18 16 16
39 39 37 36 33 32 30 31 32 33 34 34 33 31 28 27 26 27 27 26 26 26 26 28 26 25 23 23 22 22 23 29 42 53 58 59 64 58 70 64 55 36 30 26 22
49 50 51 48 44 42 42 41 41 42 40 39 36 32 30 30 29 30 30 29 28 29 30 29 28 26 27 26 25 25 26 26 32 52 66 64 74 75 82 92 90 89 90 63 44
54 56 56 54 53 50 48 47 45 45 43 40 38 36 34 32 32 30 30 30 31 33 33 32 30 29 28 26 26 28 29 33 33 52 68 73 74 86 85 96 98 98 93 88 62
62 62 63 62 57 55 51 49 48 46 44 41 39 37 36 37 36 35 34 36 36 35 34 35 33 34 34 31 26 22 22 32 44 68 81 82 85 86 93 96 98 95 94 84 85
77 76 73 71 67 61 57 54 51 48 45 43 41 38 35 34 37 32 32 37 39 38 38 36 37 34 28 25 24 26 36 50 61 93 93 96 99 84 100 87 88 85 81 76 77
86 85 80 75 72 66 60 55 51 47 44 41 38 34 29 30 33 31 34 37 41 42 39 42 34 29 26 29 45 51 52 69 86 96 94 89 87 89 96 96 94 85 94 77 61
93 83 79 70 59 48 40 40 38 32 23 19 17 13 12 18 27 27 33 39 44 43 40 37 31 31 34 44 51 64 74 86 92 93 96 95 95 88 96 88 94 98 73 81 78
64 51 29 24 21 18 16 13 10 9 8 6 6 7 8 19 28 31 36 42 47 43 41 32 33 39 50 67 69 75 74 84 86 91 92 92 88 96 98 95 95 95 90 93 68
39 30 16 12 10 9 8 8 7 7 6 7 8 17 17 23 26 32 39 47 55 49 40 39 38 45 51 60 68 75 76 93 96 79 93 85 90 90 93 96 96 95 82 18 9
24 15 10 10 10 9 8 7 6 6 6 15 40 24 25 29 36 38 43 59 64 51 43 48 40 44 47 54 67 74 81 97 97 91 87 89 92 91 95 98 95 44 9 9 9
6 9 11 11 11 10 9 8 6 7 5 16 23 32 37 40 45 50 68 65 65 58 54 48 45 49 64 70 75 74 83 97 100 98 98 96 100 95 98 60 40 12 9 8 4
7 10 11 12 12 11 10 8 8 10 7 10 24 35 39 56 86 90 76 70 68 69 62 52 50 60 67 74 82 79 83 93 97 97 93 95 99 98 43 45 12 10 7 4 3
7 8 11 12 12 11 10 8 8 13 12 13 20 29 46 54 91 96 86 83 78 69 58 48 50 60 73 75 81 93 84 91 96 99 100 98 93 72 18 11 11 7 4 4 3
7 9 12 14 12 10 8 7 7 17 16 21 27 51 66 92 100 99 100 95 83 77 62 51 52 67 81 80 83 96 95 95 97 100 100 86 79 15 12 12 8 5 4 3 2
9 10 12 13 11 10 7 6 7 16 20 28 39 60 99 100 99 100 97 86 69 65 66 59 60 75 88 87 84 95 94 87 90 96 97 46 16 16 14 10 6 4 3 2 3
10 11 11 10 9 8 8 6 6 9 17 20 21 36 100 99 99 99 94 65 56 58 69 62 69 91 96 86 84 97 91 94 99 96 48 25 18 15 12 7 5 3 2 3 11
12 11 10 8 8 8 7 6 6 6 5 6 8 8 13 30 93 96 98 86 49 52 62 63 62 88 90 86 94 98 92 97 98 88 35 20 16 15 10 6 4 3 2 8 31
14 12 11 10 9 8 8 7 6 6 5 4 4 4 6 6 30 48 47 76 43 67 80 78 84 92 90 91 95 95 96 97 98 95 62 16 15 13 8 5 5 2 3 29 41
17 15 13 11 10 9 9 8 7 6 5 4 4 4 4 5 6 10 21 39 43 67 92 98 92 100 94 97 94 98 98 99 97 84 20 17 16 13 7 5 3 2 8 37 46
21 19 16 14 12 11 10 9 8 7 5 4 4 4 4 4 9 15 28 59 77 98 100 97 99 100 94 97 97 99 97 99 95 48 19 19 16 11 7 5 2 3 17 45 51
25 24 21 19 17 15 12 10 9 7 6 5 4 4 4 9 17 47 56 99 100 100 99 99 100 99 98 98 98 96 97 99 95 21 18 19 18 11 7 5 2 8 34 53 53
29 27 26 22 19 19 16 12 11 9 6 5 5 6 8 20 67 100 98 100 100 100 100 100 99 97 98 99 99 97 98 98 65 19 19 20 19 11 7 4 2 24 45 53 52
34 30 30 26 21 20 18 13 12 10 8 7 7 28 73 45 72 98 100 100 100 100 99 100 100 97 97 100 98 97 99 96 66 21 21 21 19 11 7 3 2 39 48 42 50
39 35 36 31 23 21 19 16 12 11 9 8 11 37 100 100 98 52 88 99 100 100 100 100 99 98 99 99 97 98 98 95 34 23 23 22 18 13 7 3 2 40 41 40 55
48 45 43 35 28 24 24 21 12 12 10 9 8 20 67 100 100 90 86 100 100 100 100 100 99 100 99 98 96 97 100 67 29 25 24 24 17 15 7 3 2 41 53 55 51
54 54 45 40 32 27 25 22 19 12 12 10 8 9 42 71 97 100 100 100 100 100 100 99 99 99 98 98 96 99 95 90 29 27 27 26 18 17 8 3 3 41 58 64 71
Wind_Speed
34 36 37 36 37 39 40 41 42 42 44 44 44 45 46 45 44 43 46 44 43 43 43 45 44 42 42 42 41 41 44 43 47 48 48 45 48 46 47 49 49 49 52 54 53
36 37 38 38 39 41 41 42 42 43 46 46 46 45 44 44 45 46 45 43 42 44 46 44 43 42 43 42 43 43 45 47 46 48 49 48 48 48 44 45 46 46 48 49 50
41 40 40 39 40 41 41 42 43 44 44 46 44 44 45 46 48 47 46 45 45 44 46 46 46 45 44 43 44 46 45 46 47 47 48 48 47 47 48 47 46 46 48 48 50
43 43 44 44 43 43 43 42 42 42 43 44 45 46 46 47 48 50 48 47 45 46 46 44 43 42 43 44 46 48 47 44 46 47 48 48 47 48 49 48 48 53 54 51 53
44 45 45 46 44 44 43 43 42 43 44 45 46 47 48 49 49 47 49 49 48 46 44 41 41 44 47 45 45 44 44 44 47 46 47 47 48 52 52 52 50 57 50 55 51
48 48 47 46 46 45 45 45 45 46 46 47 49 50 51 52 49 49 50 48 46 43 41 41 44 44 41 41 42 42 42 43 44 42 43 44 44 41 38 42 44 46 45 44 44
49 48 47 45 44 46 46 47 48 48 49 49 52 53 52 52 52 51 49 48 45 42 40 41 40 40 41 40 39 39 39 39 40 40 41 41 40 38 42 43 45 44 44 40 41
44 43 44 44 45 45 45 45 46 48 49 51 53 55 56 52 49 50 48 45 41 40 40 36 37 38 39 39 39 39 39 39 40 38 38 40 38 39 42 41 38 36 39 43 42
39 39 39 40 42 45 48 47 48 49 51 53 55 56 55 50 47 46 44 42 39 36 35 35 35 35 35 34 36 37 39 37 38 39 41 41 39 40 38 38 39 39 35 30 24
38 40 41 42 43 45 47 49 50 52 52 54 55 52 51 45 42 42 40 39 35 32 31 31 32 34 35 35 35 37 37 32 34 33 33 35 37 37 38 39 35 26 18 23 30
40 43 42 43 45 46 49 49 51 53 52 50 47 49 46 41 38 39 40 36 31 30 28 29 32 33 35 34 34 35 34 33 32 30 32 36 36 36 34 27 15 13 21 28 32
40 41 41 41 43 44 47 47 49 50 50 46 45 40 39 38 36 38 34 29 27 27 27 29 29 30 30 31 31 32 29 29 29 32 33 32 30 28 19 7 12 17 24 30 33
41 42 41 40 41 43 46 47 48 47 50 48 39 34 32 33 33 29 28 25 24 25 26 28 28 29 30 29 28 29 27 22 20 22 24 23 18 8 5 11 15 21 27 32 35
41 42 41 41 41 43 44 46 45 42 45 44 41 35 31 32 34 31 26 24 25 25 27 27 27 28 29 29 28 27 23 15 13 14 15 9 7 3 10 14 17 24 29 33 38
41 41 40 41 40 39 41 42 42 39 41 38 36 31 27 26 25 23 22 21 22 22 24 26 27 28 28 28 27 25 18 14 11 9 8 4 3 5 10 15 20 25 32 38 41
40 39 39 39 38 39 40 41 40 37 38 33 30 28 22 23 20 20 13 13 15 18 23 25 27 27 27 26 27 25 20 14 9 8 8 5 8 4 10 17 22 29 35 37 35
37 37 36 36 35 36 39 40 40 35 35 34 30 30 21 18 21 10 9 12 17 18 20 24 26 26 26 24 25 22 18 11 8 6 3 7 8 11 14 20 24 31 36 33 29
32 33 32 30 32 34 37 37 35 35 34 33 33 34 34 37 28 25 27 16 21 20 20 24 24 24 25 23 22 20 17 11 8 7 5 8 9 12 16 21 27 32 34 25 20
30 28 28 27 30 31 32 33 32 33 33 31 30 31 31 24 28 28 28 19 21 20 21 23 23 23 24 22 21 18 14 13 11 8 4 6 9 14 18 24 30 35 29 16 19
30 29 27 27 27 28 30 31 32 31 32 30 28 27 28 25 21 22 22 21 20 20 21 23 23 22 23 21 20 14 8 10 9 6 5 4 10 15 19 26 32 33 20 13 19
30 29 28 26 26 26 28 29 31 29 29 27 27 26 25 23 22 19 20 18 16 18 21 22 21 20 20 18 17 9 8 12 7 4 3 5 11 16 21 27 32 28 13 12 14
34 33 30 27 26 26 26 28 29 29 28 27 25 24 23 20 19 19 20 15 14 18 19 18 18 17 17 16 11 9 8 12 8 4 3 7 13 17 21 28 32 18 9 12 11
34 32 31 30 27 26 27 28 29 27 27 26 24 21 20 18 20 23 20 15 13 14 16 16 15 15 15 14 12 11 9 13 7 2 3 8 13 17 22 28 30 8 9 7 6
35 33 32 30 28 27 26 28 29 26 26 24 21 17 16 16 25 23 22 21 13 12 14 13 14 14 14 12 11 8 9 11 6 2 4 9 13 18 23 29 27 4 5 4 1
38 37 35 32 30 28 26 27 28 25 25 22 20 18 17 14 18 24 26 21 16 14 13 12 12 12 11 10 10 8 11 10 5 1 4 8 13 18 23 28 22 6 5 8 5
41 39 37 34 32 28 25 26 26 25 23 21 21 20 24 21 15 14 20 20 15 14 13 11 10 10 10 9 8 8 9 10 5 0 4 9 13 18 23 28 19 6 7 7 4
42 42 41 36 32 30 27 29 27 26 25 22 21 20 21 22 18 14 11 12 13 13 12 11 11 10 8 7 6 10 13 11 5 1 4 9 12 18 23 27 14 8 6 6 9
Wind_Direction
302 305 304 301 299 298 297 298 296 296 298 302 301 304 305 305 305 307 306 306 306 305 304 302 298 294 290 283 279 276 272 270 265 265 267 268 265 263 262 262 261 259 260 261 262
300 300 299 300 302 300 299 299 302 303 305 305 305 305 307 307 306 307 307 303 301 304 307 304 298 294 289 284 279 277 276 271 270 268 268 267 267 265 264 263 262 263 262 263 261
297 296 296 297 298 297 299 300 301 302 302 302 304 306 305 305 306 305 305 303 302 302 304 304 300 294 287 284 280 278 279 277 273 269 268 268 267 268 267 266 265 266 265 260 261
294 295 295 295 294 294 294 295 297 297 299 300 301 303 303 302 304 303 302 302 302 303 302 301 292 287 287 287 284 283 282 281 275 269 266 266 266 266 265 265 270 269 267 265 263
292 292 292 292 290 290 291 292 295 295 298 299 298 298 299 300 301 302 301 300 301 301 301 292 288 288 289 290 289 287 283 278 274 268 266 267 268 267 270 270 268 266 269 267 272
292 292 291 290 290 289 291 294 296 298 298 297 295 295 298 301 302 301 302 300 301 301 294 291 290 293 294 293 290 287 284 280 273 269 269 272 275 275 274 271 275 273 269 268 266
291 290 291 290 290 291 292 294 294 294 294 295 295 295 298 302 301 301 301 300 300 298 292 291 294 295 296 294 293 290 285 280 270 265 268 270 271 273 280 283 268 262 267 260 258
288 287 289 290 291 291 292 291 291 291 294 294 294 294 298 298 298 297 298 297 296 291 287 291 296 297 297 295 293 291 287 280 272 268 269 268 273 277 281 283 272 260 254 262 267
287 288 291 293 292 294 294 294 294 293 293 295 294 295 295 295 296 295 294 293 291 285 286 293 298 299 297 297 298 296 287 279 275 269 269 270 274 280 280 280 264 264 272 270 277
285 287 290 292 292 294 294 294 294 294 294 293 292 291 291 293 293 292 289 289 282 283 290 298 303 300 298 299 298 299 291 278 275 277 272 267 279 284 281 275 275 274 273 284 282
278 282 286 289 293 294 295 296 296 294 293 293 291 295 293 294 290 285 287 282 281 288 292 299 302 300 298 299 296 299 292 277 273 278 271 274 278 278 283 285 264 281 285 284 289
282 285 288 292 296 298 300 300 299 298 297 295 295 293 289 287 284 286 280 278 281 288 291 297 301 304 306 303 300 300 291 272 273 280 284 283 279 279 271 257 281 289 288 290 294
283 287 290 293 297 301 305 306 305 306 302 298 298 295 283 279 283 276 272 274 281 287 293 297 304 306 313 309 305 305 299 283 278 279 286 283 270 226 256 277 288 292 294 302 306
281 286 290 294 299 304 307 307 308 310 301 301 301 298 287 278 273 262 265 273 281 287 287 295 300 306 310 314 308 308 305 308 310 313 317 265 217 225 262 285 296 299 308 313 314
282 285 289 293 295 300 305 306 308 304 299 300 300 299 293 292 262 249 256 270 279 286 287 293 300 303 305 311 311 307 304 318 316 304 257 200 237 235 283 301 311 315 317 320 317
283 285 287 291 294 300 304 307 308 299 296 294 293 298 284 249 243 253 256 287 301 293 289 294 299 303 304 308 309 307 297 300 301 285 224 233 265 309 302 314 320 322 325 323 314
282 283 285 290 293 297 301 305 305 298 294 289 286 283 244 269 256 238 270 306 301 299 293 293 300 305 304 308 308 306 292 304 278 209 201 264 285 306 322 325 329 329 324 321 315
281 282 284 290 292 296 300 303 302 297 294 293 288 283 287 290 280 276 290 320 302 297 294 296 298 301 307 309 308 300 280 278 254 192 202 272 302 318 330 332 333 334 333 320 318
280 281 286 290 292 296 304 303 301 297 296 294 292 289 293 291 289 294 308 306 297 290 289 294 297 305 311 308 306 295 283 273 242 198 182 268 314 329 336 339 342 338 331 325 326
283 283 284 288 295 296 302 303 298 298 295 296 294 290 289 286 273 276 283 284 282 284 284 291 298 303 310 306 304 295 278 238 212 175 245 302 327 337 345 346 342 338 327 331 334
283 286 284 290 293 297 300 301 299 298 296 296 294 292 285 279 269 262 276 264 273 278 284 290 293 302 311 301 303 297 265 235 200 191 272 347 338 347 348 346 344 341 331 330 340
276 281 285 289 294 295 296 300 298 300 298 296 293 292 284 275 265 263 262 265 284 283 280 281 287 303 308 301 297 253 242 234 179 227 310 354 345 350 349 349 349 345 354 338 358
276 280 286 287 291 296 296 298 299 302 298 298 299 292 278 264 251 258 264 261 272 271 275 279 287 301 306 300 281 256 235 225 160 226 331 350 351 357 350 350 353 1 347 354 55
274 280 285 283 290 291 292 295 300 301 298 306 301 285 278 272 251 250 260 266 271 268 272 280 283 294 302 303 282 253 221 189 174 239 346 352 356 355 354 354 356 46 348 23 349
269 275 277 281 284 286 290 293 299 298 296 303 297 266 268 276 274 261 258 275 270 274 278 284 280 290 299 302 273 237 223 191 186 219 0 357 359 359 356 356 358 107 38 88 49
265 271 274 276 277 278 280 291 296 292 295 301 297 271 252 263 282 258 261 270 270 266 273 277 274 288 298 297 263 227 212 173 180 173 7 5 3 0 358 358 359 146 134 80 38
256 265 270 272 272 274 280 281 291 290 295 299 301 283 260 250 266 263 246 266 263 262 267 269 269 285 300 292 250 207 185 173 177 154 22 7 6 1 1 359 4 157 169 96 74